Location: Mercogliano
(40.9167°N, 14.7333°E)
Time: 07:53:34
(UTC+00:00)

CZ-2C R/B - Pass Details

Date: 24 January 2021
Orbit: 785 x 870 km, 98.2° (Epoch: 08 March)

Event Time Altitude Azimuth Distance (km) Brightness Sun altitude
Rises 04:08:40 0° 125° (SE) 3,287 6.7 -24.4°
Reaches altitude 10° 04:11:31 10° 109° (ESE) 2,373 6.1 -23.9°
Maximum altitude 04:15:16 20° 63° (ENE) 1,779 5.0 -23.2°
Drops below altitude 10° 04:19:05 10° 17° (NNE) 2,420 5.2 -22.4°
Sets 04:22:00 0° 2° (N) 3,373 5.8 -21.9°
